Location: Biharia
(46.4333°N, 22.8000°E)
Time: 10:55:37
(UTC+00:00)

Lacrosse 4 Rocket - Pass Details

Date: 16 October 2021
Orbit: 537 x 619 km, 68.0° (Epoch: 02 December)

Event Time Altitude Azimuth Distance (km) Brightness Sun altitude
Rises 18:32:08 0° 330° (NNW) 2,794 5.6 -30.0°
Reaches altitude 10° 18:34:22 10° 334° (NNW) 1,905 4.6 -30.4°
Enters shadow 18:35:52 21° 338° (NNW) 1,327 3.6 -30.6°
